x

Grand Traverse Light, Mi (gtlm4) Weather Station

12:40am - Sun 31st Aug 2014 All times are CDT. -5 hours from GMT.

  • Wind
    17mph, 20mph gusts
  • Air Temp 64°f
  • Sea Pressure 1011.2mb
  • Grand Traverse Light, Mi
  • Grand Traverse Light, Mi

More Historic Weather Station data

Upgrade to MSW Pro to gain access to the past 30 days of data for over 8000 Wavebouys and Weather Stations around the globe.

Join Pro

Comparision Forecast

View Surf forecast
   
Sun 08/31 12:40am 17 20 mph 1011.2mb 64f
12:30am 17 21 mph 1011.2mb 64f
12:20am 20 23 mph 1011.2mb 64f
12:10am 16 21 mph 1011.2mb 64f
12:00am 20 22 mph 1010.8mb 64f
Sat 08/30 11:40pm 18 21 mph 1010.8mb 64f
11:30pm 18 22 mph 1010.8mb 64f
11:20pm 21 23 mph 1010.5mb 64f
11:10pm 21 23 mph 1010.5mb 64f
11:00pm 20 23 mph 1010.5mb 64f
10:40pm 20 23 mph 1010.5mb 64f
10:30pm 20 22 mph 1010.5mb 64f
10:20pm 17 22 mph 1010.2mb 64f
10:10pm 21 22 mph 1010.2mb 64f
10:00pm 18 21 mph 1010.2mb 64f
9:40pm 20 23 mph 1009.8mb 64f
9:30pm 20 22 mph 1009.8mb 64f
9:20pm 18 21 mph 1009.8mb 64f
9:10pm 16 21 mph 1009.5mb 65f
9:00pm 18 23 mph 1009.5mb 65f
8:40pm 20 22 mph 1009.1mb 65f
8:30pm 17 22 mph 1009.1mb 65f
8:20pm 14 17 mph 1008.8mb 66f
8:10pm 16 21 mph 1008.5mb 66f
8:00pm 18 23 mph 1008.5mb 67f
7:40pm 15 20 mph 1007.8mb 67f
7:30pm 17 21 mph 1007.8mb 67f
7:20pm 16 21 mph 1007.8mb 67f
7:10pm 20 24 mph 1007.8mb 68f
7:00pm 21 25 mph 1007.5mb 68f
6:40pm 24 29 mph 1007.5mb 69f
6:36pm 24 29 mph 1007.5mb 69f
6:30pm 24 28 mph 1007.1mb 69f
6:20pm 24 28 mph 1007.1mb 69f
6:10pm 23 29 mph 1007.1mb 70f
6:00pm 23 31 mph 1007.1mb 70f
5:40pm 24 32 mph 1006.8mb 72f
5:30pm 24 30 mph 1006.8mb 73f
5:20pm 24 28 mph 1006.8mb 73f
5:10pm 22 28 mph 1006.8mb 73f
5:00pm 22 26 mph 1006.4mb 73f
4:40pm 17 23 mph 1006.4mb 76f
4:30pm 18 24 mph 1006.4mb 76f
4:20pm 21 23 mph 1006.8mb 74f
4:10pm 20 24 mph 1006.4mb 74f
4:00pm 22 25 mph 1006.8mb 74f
3:40pm 24 26 mph 1007.1mb 74f
3:30pm 23 29 mph 1007.1mb 74f
3:20pm 23 25 mph 1006.8mb 75f
3:10pm 23 28 mph 1006.8mb 73f
3:00pm 22 30 mph 1007.1mb 73f
2:42pm 23 29 mph 1007.1mb 73f
2:40pm 24 26 mph 1007.5mb 73f
2:30pm 22 24 mph 1007.1mb 73f
2:20pm 22 25 mph 1007.5mb 73f
2:10pm 21 23 mph 1007.5mb 73f
2:00pm 20 22 mph 1007.8mb 71f
1:40pm 13 15 mph 1007.8mb 72f
1:30pm 11 13 mph 1007.8mb 72f
1:20pm 9 15 mph 1008.1mb 70f
1:10pm 10 13 mph 1007.8mb 70f
1:00pm 5 9 mph 1007.8mb 71f
12:40pm 5 6 mph 1008.1mb 71f
12:30pm 3 15 mph 1008.1mb 72f
12:20pm 7 10 mph 1008.1mb 76f
12:10pm 5 8 mph 1008.1mb 76f
12:00pm 3 10 mph 1008.1mb 75f
11:40am 6 10 mph 1008.1mb 75f
11:30am 5 10 mph 1008.5mb 76f
11:20am 6 9 mph 1008.5mb 77f
11:10am 6 9 mph 1008.5mb 74f
11:02am 5 13 mph 1008.5mb 73f
11:00am 5 11 mph 1008.5mb 73f
10:40am 6 10 mph 1008.8mb 72f
10:30am 6 10 mph 1008.5mb 72f
10:20am 6 13 mph 1008.8mb 72f
10:10am 7 10 mph 1008.5mb 72f
10:02am 3 14 mph 1008.5mb 71f
10:00am 3 11 mph 1008.5mb 71f
9:40am 6 14 mph 1008.8mb 71f
9:30am 8 13 mph 1008.8mb 71f
9:20am 5 14 mph 1008.5mb 71f
9:10am 6 11 mph 1008.5mb 72f
9:01am 5 14 mph 1008.5mb 70f
9:00am 5 10 mph 1008.5mb 70f
8:40am 6 10 mph 1008.8mb 69f
8:30am 6 10 mph 1008.8mb 69f
8:20am 7 11 mph 1008.8mb 69f
8:10am 6 13 mph 1009.1mb 69f
8:01am 7 15 mph 1009.1mb 69f
8:00am 7 13 mph 1009.1mb 69f
7:40am 7 11 mph 1009.1mb 69f
7:30am 5 10 mph 1009.1mb 69f
7:20am 5 13 mph 1009.5mb 69f
7:10am 5 11 mph 1009.1mb 69f
7:00am 3 13 mph 1009.1mb 69f
6:40am 6 11 mph 1009.1mb 70f
6:30am 6 13 mph 1009.1mb 70f
6:20am 6 11 mph 1009.1mb 70f
6:10am 6 14 mph 1009.1mb 71f
6:00am 6 13 mph 1009.1mb 71f
5:40am 6 14 mph 1009.1mb 71f
5:30am 7 14 mph 1009.1mb 71f
5:20am 7 16 mph 1009.1mb 71f
5:10am 6 14 mph 1009.1mb 71f
5:00am 6 11 mph 1009.1mb 70f
4:40am 8 15 mph 1009.5mb 71f
4:30am 6 14 mph 1009.5mb 71f
4:20am 3 15 mph 1009.5mb 71f
4:10am 6 13 mph 1009.5mb 70f
4:00am 7 13 mph 1009.5mb 70f
3:40am 7 10 mph 1009.5mb 70f
3:30am 5 9 mph 1009.8mb 70f
3:20am 3 10 mph 1009.8mb 70f
3:10am 5 11 mph 1009.8mb 70f
3:00am 7 11 mph 1009.8mb 70f
2:40am 3 13 mph 1010.2mb 71f
2:30am 6 14 mph 1010.2mb 70f
2:20am 6 11 mph 1010.5mb 70f
2:10am 5 11 mph 1010.5mb 70f
2:00am 5 10 mph 1010.5mb 70f
1:50am 5 10 mph 1010.8mb 70f
1:40am 5 11 mph 1010.8mb 70f
1:30am 5 9 mph 1011.2mb 69f
1:20am 5 10 mph 1010.8mb 69f
1:10am 5 13 mph 1010.8mb 69f
1:00am 7 13 mph 1010.8mb 69f
12:50am 5 14 mph 1011.2mb 69f
12:40am 6 10 mph 1011.2mb 69f
12:30am 6 11 mph 1011.5mb 69f
12:20am 7 14 mph 1011.5mb 69f
12:10am 7 15 mph 1011.2mb 69f
12:00am 8 15 mph 1011.5mb 69f
Fri 08/29 11:50pm 7 20 mph 1011.5mb 69f
11:40pm 8 16 mph 1011.5mb 69f
11:30pm 6 15 mph 1011.5mb 69f
11:20pm 8 14 mph 1011.9mb 69f
10:40pm 6 11 mph 1011.9mb 69f
10:30pm 7 14 mph 1012.2mb 68f
10:20pm 3 13 mph 1011.9mb 68f
10:10pm 6 16 mph 1012.2mb 68f
10:00pm 7 13 mph 1012.2mb 68f
9:50pm 5 13 mph 1011.9mb 68f
9:40pm 7 11 mph 1011.9mb 68f
9:30pm 6 11 mph 1012.2mb 68f
9:20pm 3 10 mph 1011.9mb 67f
9:10pm 5 13 mph 1012.2mb 68f
9:00pm 6 11 mph 1012.2mb 67f
8:50pm 6 13 mph 1012.2mb 67f
8:40pm 8 15 mph 1012.5mb 68f
8:30pm 9 20 mph 1012.5mb 68f
8:20pm 6 16 mph 1012.5mb 70f
8:10pm 7 17 mph 1012.2mb 70f
8:00pm 8 17 mph 1012.2mb 70f
7:50pm 8 20 mph 1012.2mb 70f
7:40pm 7 15 mph 1012.2mb 70f
7:30pm 7 16 mph 1011.9mb 70f
7:20pm 7 15 mph 1011.9mb 70f
7:10pm 5 15 mph 1011.9mb 71f
7:00pm 8 15 mph 1011.9mb 71f
6:50pm 6 18 mph 1011.9mb 72f
6:40pm 6 18 mph 1011.9mb 72f
6:30pm 5 14 mph 1012.2mb 72f
6:20pm 6 15 mph 1011.9mb 73f
6:10pm 3 13 mph 1012.2mb 74f
6:00pm 6 13 mph 1012.2mb 74f
5:50pm 6 11 mph 1012.2mb 74f
5:40pm 7 13 mph 1012.2mb 75f
5:30pm 7 15 mph 1012.2mb 76f
5:20pm 7 16 mph 1011.9mb 75f
5:10pm 8 15 mph 1011.9mb 75f
5:00pm 7 14 mph 1012.2mb 74f
4:50pm 6 15 mph 1012.2mb 76f
4:40pm 6 15 mph 1012.2mb 75f
4:30pm 6 15 mph 1012.2mb 76f
4:20pm 5 13 mph 1012.2mb 75f
4:10pm 6 15 mph 1012.2mb 74f
4:00pm 3 14 mph 1012.5mb 72f
3:50pm 5 17 mph 1012.5mb 71f
3:40pm 5 13 mph 1013.2mb 74f
3:30pm 7 16 mph 1012.9mb 78f
3:20pm 6 15 mph 1012.5mb 78f
3:10pm 8 18 mph 1012.9mb 77f
3:00pm 7 14 mph 1012.9mb 76f
2:50pm 7 16 mph 1012.9mb 73f
2:40pm 6 16 mph 1013.2mb 71f
2:30pm 8 18 mph 1013.2mb 71f
2:20pm 9 16 mph 1013.2mb 69f
2:10pm 7 20 mph 1013.5mb 70f
2:00pm 8 18 mph 1013.5mb 71f
1:50pm 6 18 mph 1013.9mb 71f
1:40pm 10 17 mph 1013.9mb 71f
1:30pm 9 20 mph 1014.2mb 69f
1:20pm 9 20 mph 1014.2mb 68f
1:10pm 9 20 mph 1014.6mb 67f
1:00pm 7 23 mph 1014.6mb 67f
12:50pm 8 20 mph 1014.6mb 67f
12:40pm 8 17 mph 1014.6mb 67f
12:30pm 8 17 mph 1014.9mb 65f
12:20pm 8 17 mph 1015.2mb 63f
12:10pm 7 16 mph 1015.6mb 62f
12:00pm 7 20 mph 1015.6mb 62f
11:50am 10 17 mph 1015.6mb 62f
11:40am 7 17 mph 1015.9mb 61f
11:30am 8 16 mph 1015.9mb 60f
11:20am 9 23 mph 1015.9mb 60f
11:10am 10 16 mph 1016.3mb 60f
11:00am 8 15 mph 1016.3mb 60f
10:50am 5 18 mph 1016.6mb 60f
10:40am 6 15 mph 1016.6mb 60f
10:30am 6 15 mph 1016.6mb 60f
10:20am 8 17 mph 1016.6mb 60f
10:10am 7 15 mph 1016.6mb 60f
10:00am 3 18 mph 1016.9mb 60f
9:50am 5 21 mph 1016.9mb 60f
9:40am 8 16 mph 1017.3mb 60f
9:30am 8 17 mph 1017.6mb 60f
9:20am 9 16 mph 1017.3mb 60f
9:10am 6 15 mph 1017.6mb 60f
9:00am 6 17 mph 1017.3mb 60f
8:50am 7 15 mph 1017.3mb 60f
8:40am 6 20 mph 1017.3mb 60f
8:30am 8 15 mph 1017.3mb 59f
8:20am 6 16 mph 1017.6mb 59f
8:10am 6 14 mph 1017.6mb 59f
8:00am 6 17 mph 1017.9mb 59f
7:50am 6 14 mph 1017.9mb 59f
7:40am 6 15 mph 1017.9mb 58f
7:30am 6 13 mph 1017.9mb 59f
7:20am 7 15 mph 1017.9mb 59f
7:10am 6 13 mph 1018.3mb 59f
7:00am 3 10 mph 1018.3mb 60f
6:50am 3 9 mph 1018.3mb 60f
6:40am 3 10 mph 1017.9mb 60f
6:30am 3 8 mph 1017.9mb 60f
6:20am 5 9 mph 1017.9mb 60f
6:10am 5 11 mph 1017.9mb 60f
6:00am 3 9 mph 1017.9mb 61f
5:50am 7 11 mph 1017.6mb 61f
5:40am 5 10 mph 1017.9mb 62f
5:30am 7 11 mph 1017.6mb 62f
5:20am 7 11 mph 1017.6mb 63f
5:10am 6 15 mph 1017.6mb 63f
5:00am 6 14 mph 1017.6mb 63f
4:40am 7 14 mph 1017.6mb 62f
4:30am 6 14 mph 1017.6mb 62f
4:20am 6 14 mph 1017.9mb 62f
4:10am 6 13 mph 1017.6mb 62f
4:00am 7 16 mph 1017.6mb 62f
3:50am 7 14 mph 1017.6mb 62f
3:40am 7 14 mph 1017.6mb 62f
3:30am 5 11 mph 1017.9mb 62f
3:20am 6 13 mph 1017.9mb 62f
3:10am 5 10 mph 1017.9mb 62f
3:00am 7 13 mph 1017.9mb 62f
2:50am 5 10 mph 1018.3mb 62f
2:40am 6 11 mph 1018.3mb 62f
2:30am 5 10 mph 1018.3mb 62f
2:20am 5 11 mph 1018.3mb 62f
2:10am 6 10 mph 1018.6mb 62f
2:00am 5 11 mph 1018.6mb 62f
1:50am 5 9 mph 1018.6mb 62f
1:40am 3 8 mph 1018.6mb 61f
1:30am 3 8 mph 1018.6mb 61f
1:20am 5 8 mph 1019mb 61f
1:10am 3 8 mph 1019mb 61f
1:00am 5 9 mph 1019.3mb 62f
12:50am 3 10 mph 1019.3mb 61f
12:40am 3 6 mph 1019.3mb 61f
12:30am 3 8 mph 1019.3mb 62f
12:20am 5 7 mph 1019.3mb 62f
12:10am 3 9 mph 1019.6mb 62f
12:00am 3 8 mph 1019.3mb 61f
Thu 08/28 11:50pm 3 7 mph 1019.3mb 61f
11:40pm 3 7 mph 1019.3mb 60f
11:30pm 3 7 mph 1019.6mb 60f
11:20pm 3 5 mph 1020mb 60f
11:10pm 2 7 mph 1020mb 61f
11:00pm 3 7 mph 1019.6mb 60f
10:50pm 3 6 mph 1019.6mb 59f
10:40pm 2 6 mph 1019.6mb 59f
10:30pm 5 6 mph 1019.6mb 58f
10:20pm 5 6 mph 1020mb 58f
10:10pm 3 6 mph 1020mb 58f
10:00pm 3 6 mph 1020mb 58f
9:50pm 3 5 mph 1020mb 58f
9:40pm 3 5 mph 1019.6mb 57f
9:30pm 3 6 mph 1020mb 58f
9:20pm 5 6 mph 1019.6mb 58f
9:10pm 3 5 mph 1020mb 58f
9:00pm 3 6 mph 1020mb 58f
8:50pm 3 5 mph 1020mb 58f
8:40pm 3 6 mph 1020mb 58f
8:30pm 3 5 mph 1020.3mb 58f
8:20pm 2 5 mph 1020.3mb 58f
8:10pm 3 5 mph 1020mb 58f
8:00pm 2 3 mph 1020mb 58f
7:50pm 2
mph
1020mb 58f
7:40pm  -  2 mph 1020mb 59f
7:30pm 2 3 mph 1020mb 59f
7:20pm  -  2 mph 1020mb 60f
7:10pm 1 2 mph 1020mb 60f
7:00pm  -  3 mph 1020mb 62f
6:50pm 3 5 mph 1020mb 64f
6:40pm 3 5 mph 1020mb 64f
6:30pm 3 6 mph 1020mb 65f
6:20pm 5
mph
1020mb 65f
6:10pm 5
mph
1020mb 67f
6:00pm 3 6 mph 1020mb 68f
5:50pm 3 5 mph 1020.3mb 67f
5:40pm 5 6 mph 1020.3mb 67f
5:30pm 5 7 mph 1020.3mb 65f
5:20pm 6
mph
1020.3mb 66f
5:10pm 5 7 mph 1020.3mb 66f
5:00pm 6 7 mph 1020.3mb 66f
4:50pm 6 7 mph 1020.7mb 67f
4:40pm 6 7 mph 1020.7mb 66f
4:30pm 6 8 mph 1020.7mb 66f
4:20pm 6 8 mph 1021mb 67f
4:10pm 6 7 mph 1021mb 67f
4:00pm 6 8 mph 1021mb 66f
3:50pm 6 8 mph 1021.3mb 66f
3:40pm 6 8 mph 1021mb 67f
3:30pm 6 8 mph 1021.3mb 66f
3:20pm 7 8 mph 1021.3mb 65f
3:10pm 5 7 mph 1021.3mb 66f
3:00pm 5 6 mph 1021.7mb 66f
2:50pm 5 7 mph 1021.7mb 66f
2:40pm 6 8 mph 1021.7mb 66f
2:30pm 5 8 mph 1021.7mb 65f
2:20pm 7 8 mph 1021.7mb 65f
2:10pm 6 8 mph 1021.7mb 65f
2:00pm 6 8 mph 1022mb 65f
1:50pm 6 7 mph 1022mb 65f
1:40pm 5 8 mph 1022mb 65f
1:30pm 6 7 mph 1022mb 65f
1:20pm 7 8 mph 1022mb 65f
1:10pm 5 7 mph 1022.4mb 65f
1:00pm 3 6 mph 1022.4mb 66f
12:50pm 3 6 mph 1022.4mb 65f
12:40pm 3 6 mph 1022.4mb 65f
12:30pm 5 7 mph 1022.7mb 64f
12:20pm 3 6 mph 1022.7mb 64f
12:10pm 5 7 mph 1022.7mb 64f
12:00pm 3 7 mph 1022.7mb 65f
11:50am 6 7 mph 1022.7mb 65f
11:40am 6 8 mph 1022.7mb 65f
11:30am 6 7 mph 1022.7mb 64f
11:20am 5 8 mph 1022.7mb 64f
11:10am 3 7 mph 1022.7mb 64f
11:00am 6 8 mph 1022.7mb 63f
10:50am 5 8 mph 1022.7mb 63f
10:40am 6 8 mph 1023mb 63f
10:30am 3 8 mph 1023mb 63f
10:20am 6 7 mph 1022.7mb 63f
10:10am 3 7 mph 1022.7mb 63f
10:00am 5 7 mph 1022.7mb 63f
9:50am 2 8 mph 1022.7mb 62f
9:40am 3 10 mph 1022.7mb 64f
9:30am 3 7 mph 1022.7mb 63f
9:20am 2 5 mph 1022.7mb 62f
9:10am  -  3 mph 1022.7mb 62f
9:00am 1 2 mph 1022.7mb 62f
8:50am 1 3 mph 1022.7mb 61f
8:40am  -  2 mph 1022.7mb 61f
8:30am  -  3 mph 1022.7mb 61f
8:20am 2 3 mph 1022.7mb 62f
8:10am  -  3 mph 1023mb 62f
8:00am 2 5 mph 1023mb 64f
7:50am 2 5 mph 1023mb 62f
7:40am 1 5 mph 1022.7mb 62f
7:30am 1 3 mph 1022.7mb 61f
7:20am 2 6 mph 1022.7mb 58f
7:10am 2 5 mph 1022.4mb 58f
7:00am 2 5 mph 1022.4mb 55f
6:50am 3 5 mph 1022.4mb 53f
6:40am 2 5 mph 1022.4mb 53f
6:30am 2 5 mph 1022.4mb 53f
6:20am 3 5 mph 1022.4mb 53f
6:10am 3 5 mph 1022.4mb 53f
6:00am 3 5 mph 1022.4mb 53f
5:50am 3 6 mph 1022.4mb 53f
5:40am 5 6 mph 1022.4mb 53f
5:30am 3 5 mph 1022.4mb 53f
5:20am 3 5 mph 1022mb 52f
5:10am 5
mph
1022.4mb 53f
5:00am 2 6 mph 1022.4mb 53f
4:50am 5 6 mph 1022mb 53f
4:40am 3 5 mph 1022mb 54f
4:30am 2 3 mph 1022.4mb 54f
4:20am 2 3 mph 1022mb 53f
4:10am 3 5 mph 1022mb 53f
4:00am 3 5 mph 1022mb 53f
3:50am 2 5 mph 1022mb 53f
3:40am 3 5 mph 1022.4mb 53f
3:30am 3 5 mph 1022mb 54f
3:20am 3 5 mph 1022.4mb 54f
3:10am 3
mph
1022.4mb 54f
3:00am 3
mph
1022.4mb 54f
2:50am 1 3 mph 1022.4mb 54f
2:40am 2 6 mph 1022.4mb 54f
2:30am 3 5 mph 1022.4mb 54f
2:20am 3
mph
1022.4mb 54f
2:10am 2 3 mph 1022.4mb 55f
2:00am 3
mph
1022mb 55f
1:50am 2 3 mph 1022mb 56f
1:40am 5 9 mph 1022mb 58f
1:30am 5 9 mph 1022mb 59f
1:20am 7 10 mph 1022mb 60f
1:10am 7 10 mph 1021.7mb 60f
1:00am 8 10 mph 1022mb 60f
12:50am 7 9 mph 1022mb 59f
12:40am 8 11 mph 1022mb 60f
12:30am 7 11 mph 1022mb 61f
12:20am 10 13 mph 1022mb 62f
12:10am 10
mph
1022mb 61f
12:00am 9 11 mph 1022mb 62f
Wed 08/27 11:50pm 8 11 mph 1022mb 61f
11:40pm 10 13 mph 1022mb 62f
11:30pm 11 15 mph 1022mb 62f
11:20pm 13 16 mph 1021.7mb 62f
11:10pm 13 15 mph 1021.7mb 62f
11:00pm 14 20 mph 1021.7mb 62f
10:50pm 15 17 mph 1021.7mb 62f
10:40pm 15 17 mph 1021.7mb 62f
10:30pm 14 16 mph 1021.7mb 63f
10:20pm 14 17 mph 1021.7mb 62f
10:10pm 14 20 mph 1021.3mb 63f
10:00pm 16 18 mph 1021.3mb 63f
9:50pm 15 20 mph 1021.7mb 63f
9:40pm 15 21 mph 1021.3mb 63f
9:30pm 16 18 mph 1021.3mb 63f
9:20pm 16 18 mph 1021.7mb 63f
9:10pm 15 18 mph 1021.7mb 64f
9:00pm 15 17 mph 1021.7mb 64f
8:50pm 6 7 mph 1021.7mb 63f
8:40pm 3 7 mph 1021.7mb 63f
8:30pm 6 9 mph 1021.3mb 63f
8:20pm 9 11 mph 1021.3mb 64f
8:10pm 8 9 mph 1021.3mb 63f
8:00pm 6 8 mph 1021.3mb 62f
7:50pm 7 9 mph 1021.3mb 62f
7:40pm 5 9 mph 1021.3mb 62f
7:30pm 3 9 mph 1021.3mb 62f
7:20pm 7 15 mph 1021.3mb 62f
7:10pm 5 8 mph 1021.3mb 62f
7:00pm 5 7 mph 1021.3mb 64f
6:50pm 7 8 mph 1021.3mb 66f
6:40pm 5 7 mph 1021.3mb 67f
6:30pm 5 7 mph 1021.3mb 67f
6:20pm 5 8 mph 1021.3mb 67f
6:10pm 5 8 mph 1021.3mb 67f
6:00pm 7 8 mph 1021.3mb 67f
5:50pm 6 8 mph 1021.7mb 67f
5:40pm 5 7 mph 1021.3mb 68f
5:30pm 7 8 mph 1021.3mb 69f
5:20pm 6 8 mph 1021.3mb 67f
5:10pm 5 8 mph 1021.7mb 69f
5:00pm 7 9 mph 1021.7mb 69f
4:50pm 6 9 mph 1021.7mb 68f
4:40pm 6 9 mph 1022mb 69f
4:30pm 8 10 mph 1022mb 67f
4:20pm 7 10 mph 1022mb 68f
4:10pm 6 10 mph 1022mb 69f
4:00pm 8 11 mph 1022mb 68f
3:50pm 9 10 mph 1022mb 68f
3:40pm 9 11 mph 1022mb 69f
3:30pm 8 10 mph 1022mb 68f
3:20pm 9 10 mph 1022mb 68f
3:10pm 8 10 mph 1022mb 68f
3:00pm 9 11 mph 1022mb 68f
2:50pm 10 13 mph 1022mb 69f
2:40pm 10 13 mph 1022mb 67f
2:30pm 9 13 mph 1022.4mb 67f
2:20pm 10 14 mph 1022.7mb 67f
2:10pm 9 15 mph 1022.4mb 68f
2:00pm 9 13 mph 1022.4mb 68f
1:50pm 7 11 mph 1022.4mb 69f
1:40pm 9 11 mph 1022.4mb 69f
1:30pm 9 13 mph 1022.4mb 69f
1:20pm 9 11 mph 1022.4mb 69f
1:10pm 8 13 mph 1022.4mb 68f
1:00pm 9 11 mph 1022.4mb 69f
12:50pm 8 11 mph 1022.4mb 69f
12:40pm 8 9 mph 1022.4mb 69f
12:30pm 7 9 mph 1022.4mb 69f
12:20pm 7 9 mph 1022.4mb 68f
12:10pm 7 8 mph 1022.4mb 68f
12:00pm 7 11 mph 1022.4mb 68f
11:50am 8 10 mph 1022.4mb 67f
11:40am 8 10 mph 1022.7mb 65f
11:30am 8 11 mph 1022.7mb 65f
11:20am 9 13 mph 1022.7mb 66f
11:10am 10 11 mph 1022.7mb 67f
11:00am 8 10 mph 1022.7mb 67f
10:50am 9 10 mph 1022.7mb 66f
10:40am 7 10 mph 1022.7mb 67f
10:30am 9 10 mph 1022.7mb 67f
10:20am 8 11 mph 1022.7mb 68f
10:10am 7 10 mph 1022.7mb 67f
10:00am 8 11 mph 1022.7mb 67f
9:50am 8 9 mph 1022.4mb 68f
9:40am 7 9 mph 1022.4mb 66f
9:30am 6 9 mph 1022.4mb 65f
9:20am 6 7 mph 1022mb 64f
9:10am 5 6 mph 1022mb 65f
9:00am 3
mph
1021.7mb 64f
8:50am  -  2 mph 1021.7mb 63f
8:40am  -  6 mph 1021.7mb 64f
8:30am 3 7 mph 1021.7mb 63f
8:20am 5 8 mph 1021.7mb 62f
8:10am 6 10 mph 1021.7mb 62f
8:00am 9 10 mph 1021.3mb 62f
7:50am 9 11 mph 1021.3mb 62f
7:40am 7 8 mph 1021.3mb 62f
7:30am 6 9 mph 1021.3mb 62f
7:20am 7 8 mph 1021.3mb 62f
7:10am 8 9 mph 1021.3mb 62f